Madison, MN

9:20 AM CDT on September 18, 2019 (GMT -0500)
Madison-Lac Qui Parle County

Weather History for KDXX - July, 2019

Change the Weather History Date:

Thursday, July 11, 2019

  Actual Average (KAQP) Record (KAQP)
Temperature  
Mean Temperature 72 °F -  
Max Temperature 84 °F 80 °F 91 °F (2008)
Min Temperature 60 °F 59 °F 48 °F (2007)
Cooling Degree Days 7    
Growing Degree Days 22 (Base 50)    
Moisture  
Dew Point 63 °F    
Average Humidity 72    
Maximum Humidity 100    
Minimum Humidity 45    
Precipitation  
Precipitation 0.00 in - - ()
Sea Level Pressure  
Sea Level Pressure 30.04 in    
Wind  
Wind Speed 5 mph (SW)    
Max Wind Speed 9 mph    
Max Gust Speed -    
Visibility 10 miles    
Events      
Averages and records for this station are not official NWS values.
T = Trace of Precipitation, MM = Missing Value Source: NWS Daily Summary

Daily Weather History Graph

Daily Weather History Graph

Search for Another Location

Airport or City:

Astronomy

Jul. 11, 2019 Rise Set
Actual Time 5:48 AM CDT 9:11 PM CDT
Civil Twilight 5:12 AM CDT 9:47 PM CDT
Nautical Twilight 4:24 AM CDT 10:34 PM CDT
Astronomical Twilight 3:24 AM CDT 11:34 PM CDT
Moon 4:18 PM CDT (7/11) 2:09 AM CDT (7/11)
Length of Visible Light 16h 35m
Length of Day
15h 22m
Waxing Gibbous, 74% of the Moon is Illuminated
Jul 11
Waxing Gibbous
Jul 16
Full
Jul 24
Last Quarter
Jul 31
New
Aug 7
First Quarter

Hourly Weather History & Observations

Time (CDT) Temp. Heat Index Dew Point Humidity Pressure Visibility Wind Dir Wind Speed Gust Speed Precip Events Conditions
12:19 AM 68.0 °F - 60.8 °F 78% 30.09 in 10.0 mi NNW 8.1 mph - N/A   Clear
12:36 AM 66.2 °F - 60.8 °F 83% 30.09 in 10.0 mi NNW 8.1 mph - N/A   Clear
12:56 AM 66.2 °F - 60.8 °F 83% 30.09 in 10.0 mi NW 6.9 mph - N/A   Clear
1:15 AM 66.2 °F - 60.8 °F 83% 30.09 in 10.0 mi NNW 6.9 mph - N/A   Clear
1:16 AM 66.2 °F - 60.8 °F 83% 30.09 in 10.0 mi NNW 6.9 mph - N/A   Clear
1:35 AM 66.2 °F - 60.8 °F 83% 30.09 in 10.0 mi NNW 4.6 mph - N/A   Clear
1:58 AM 64.4 °F - 60.8 °F 88% 30.10 in 10.0 mi WNW 3.5 mph - N/A   Clear
2:15 AM 64.4 °F - 60.8 °F 88% 30.10 in 10.0 mi West 4.6 mph - N/A   Clear
2:35 AM 62.6 °F - 60.8 °F 94% 30.10 in 10.0 mi West 4.6 mph - N/A   Clear
2:36 AM 62.6 °F - 60.8 °F 94% 30.10 in 10.0 mi West 4.6 mph - N/A   Clear
2:55 AM 62.6 °F - 60.8 °F 94% 30.09 in 10.0 mi WNW 3.5 mph - N/A   Clear
2:56 AM 62.6 °F - 60.8 °F 94% 30.09 in 10.0 mi Calm Calm - N/A   Clear
3:18 AM 60.8 °F - 60.8 °F 100% 30.10 in 10.0 mi West 3.5 mph - N/A   Clear
3:37 AM 62.6 °F - 60.8 °F 94% 30.10 in 10.0 mi West 5.8 mph - N/A   Clear
3:56 AM 62.6 °F - 60.8 °F 94% 30.11 in 10.0 mi West 5.8 mph - N/A   Clear
4:15 AM 60.8 °F - 60.8 °F 100% 30.11 in 10.0 mi WNW 3.5 mph - N/A   Clear
4:16 AM 60.8 °F - 60.8 °F 100% 30.12 in 10.0 mi WNW 3.5 mph - N/A   Clear
4:35 AM 60.8 °F - 60.8 °F 100% 30.12 in 10.0 mi Calm Calm - N/A   Clear
4:58 AM 60.8 °F - 60.8 °F 100% 30.12 in 10.0 mi Calm Calm - N/A   Clear
5:16 AM 60.8 °F - 59.0 °F 94% 30.12 in 10.0 mi West 3.5 mph - N/A   Clear
5:35 AM 60.8 °F - 59.0 °F 94% 30.12 in 10.0 mi Calm Calm - N/A   Clear
5:36 AM 60.8 °F - 59.0 °F 94% 30.12 in 10.0 mi West 3.5 mph - N/A   Clear
5:55 AM 60.8 °F - 59.0 °F 94% 30.12 in 7.0 mi West 4.6 mph - N/A   Clear
5:56 AM 60.8 °F - 59.0 °F 94% 30.12 in 7.0 mi West 4.6 mph - N/A   Clear
6:19 AM 60.8 °F - 60.8 °F 100% 30.12 in 10.0 mi WNW 3.5 mph - N/A   Clear
6:36 AM 60.8 °F - 60.8 °F 100% 30.13 in 10.0 mi Calm Calm - N/A   Clear
6:56 AM 62.6 °F - 60.8 °F 94% 30.13 in 10.0 mi Calm Calm - N/A   Clear
7:15 AM 64.4 °F - 62.6 °F 94% 30.12 in 10.0 mi Calm Calm - N/A   Clear
7:35 AM 64.4 °F - 62.6 °F 94% 30.13 in 10.0 mi NW 3.5 mph - N/A   Clear
7:39 AM 66.2 °F - 62.6 °F 88% 30.12 in 10.0 mi NW 4.6 mph - N/A   Clear
7:57 AM 66.2 °F - 62.6 °F 88% 30.12 in 10.0 mi Calm Calm - N/A   Clear
8:16 AM 68.0 °F - 62.6 °F 83% 30.12 in 10.0 mi Calm Calm - N/A   Clear
8:35 AM 69.8 °F - 62.6 °F 78% 30.12 in 10.0 mi Calm Calm - N/A   Clear
8:36 AM 69.8 °F - 62.6 °F 78% 30.12 in 10.0 mi Calm Calm - N/A   Clear
8:55 AM 71.6 °F - 62.6 °F 73% 30.12 in 10.0 mi Calm Calm - N/A   Clear
8:56 AM 71.6 °F - 62.6 °F 73% 30.12 in 10.0 mi Calm Calm - N/A   Clear
9:18 AM 73.4 °F - 62.6 °F 69% 30.12 in 10.0 mi Calm Calm - N/A   Clear
9:36 AM 73.4 °F - 62.6 °F 69% 30.12 in 10.0 mi Calm Calm - N/A   Clear
9:56 AM 73.4 °F - 64.4 °F 73% 30.11 in 10.0 mi Calm Calm - N/A   Clear
10:15 AM 73.4 °F - 64.4 °F 73% 30.10 in 10.0 mi Calm Calm - N/A   Clear
10:16 AM 75.2 °F - 64.4 °F 69% 30.10 in 10.0 mi Calm Calm - N/A   Clear
10:35 AM 75.2 °F - 64.4 °F 69% 30.10 in 10.0 mi South 3.5 mph - N/A   Clear
10:39 AM 75.2 °F - 64.4 °F 69% 30.10 in 10.0 mi SSW 4.6 mph - N/A   Clear
10:58 AM 75.2 °F - 64.4 °F 69% 30.10 in 10.0 mi SW 4.6 mph - N/A   Clear
11:15 AM 77.0 °F - 64.4 °F 65% 30.10 in 10.0 mi South 4.6 mph - N/A   Clear
11:35 AM 78.8 °F - 64.4 °F 61% 30.10 in 10.0 mi SSW 3.5 mph - N/A   Clear
11:36 AM 78.8 °F - 64.4 °F 61% 30.09 in 10.0 mi Calm Calm - N/A   Clear
11:55 AM 78.8 °F - 64.4 °F 61% 30.09 in 10.0 mi WSW 4.6 mph - N/A   Clear
12:18 PM 78.8 °F - 64.4 °F 61% 30.08 in 10.0 mi SSE 3.5 mph - N/A   Clear
12:37 PM 78.8 °F - 62.6 °F 57% 30.08 in 10.0 mi SW 3.5 mph - N/A   Clear
12:56 PM 80.6 °F 81.8 °F 62.6 °F 54% 30.08 in 10.0 mi SW 4.6 mph - N/A   Clear
1:15 PM 80.6 °F 82.3 °F 64.4 °F 58% 30.07 in 10.0 mi SSW 5.8 mph - N/A   Clear
1:16 PM 80.6 °F 82.3 °F 64.4 °F 58% 30.07 in 10.0 mi SSW 5.8 mph - N/A   Clear
1:35 PM 80.6 °F 81.8 °F 62.6 °F 54% 30.06 in 10.0 mi Calm Calm - N/A   Clear
1:57 PM 82.4 °F 83.4 °F 62.6 °F 51% 30.05 in 10.0 mi SSW 6.9 mph - N/A   Clear
2:16 PM 82.4 °F 83.4 °F 62.6 °F 51% 30.05 in 10.0 mi South 3.5 mph - N/A   Clear
2:35 PM 82.4 °F 82.9 °F 60.8 °F 48% 30.04 in 10.0 mi Calm Calm - N/A   Clear
2:36 PM 82.4 °F 82.9 °F 60.8 °F 48% 30.04 in 10.0 mi SSW 3.5 mph - N/A   Clear
2:55 PM 82.4 °F 82.9 °F 60.8 °F 48% 30.03 in 10.0 mi SW 4.6 mph - N/A   Clear
2:56 PM 82.4 °F 83.4 °F 62.6 °F 51% 30.03 in 10.0 mi SSW 5.8 mph - N/A   Clear
3:36 PM 84.2 °F 85.0 °F 62.6 °F 48% 30.02 in 10.0 mi WSW 3.5 mph - N/A   Clear
3:56 PM 84.2 °F 85.0 °F 62.6 °F 48% 30.01 in 10.0 mi South 5.8 mph - N/A   Clear
4:15 PM 84.2 °F 85.0 °F 62.6 °F 48% 30.00 in 10.0 mi WSW 4.6 mph - N/A   Clear
4:16 PM 84.2 °F 85.0 °F 62.6 °F 48% 30.00 in 10.0 mi SSW 4.6 mph - N/A   Clear
4:35 PM 84.2 °F 84.4 °F 60.8 °F 45% 30.00 in 10.0 mi South 5.8 mph - N/A   Clear
4:40 PM 84.2 °F 85.0 °F 62.6 °F 48% 30.00 in 10.0 mi SW 6.9 mph - N/A   Clear
4:58 PM 84.2 °F 85.0 °F 62.6 °F 48% 29.99 in 10.0 mi SSW 4.6 mph - N/A   Clear
5:15 PM 84.2 °F 84.4 °F 60.8 °F 45% 29.99 in 10.0 mi SW 6.9 mph - N/A   Clear
5:35 PM 84.2 °F 85.0 °F 62.6 °F 48% 29.98 in 10.0 mi SSW 6.9 mph - N/A   Clear
5:36 PM 84.2 °F 85.0 °F 62.6 °F 48% 29.98 in 10.0 mi SSW 6.9 mph - N/A   Clear
5:55 PM 84.2 °F 85.0 °F 62.6 °F 48% 29.98 in 10.0 mi SSW 4.6 mph - N/A   Clear
5:56 PM 84.2 °F 85.0 °F 62.6 °F 48% 29.97 in 10.0 mi SSW 5.8 mph - N/A   Clear
6:19 PM 84.2 °F 85.0 °F 62.6 °F 48% 29.97 in 10.0 mi SSW 6.9 mph - N/A   Clear
6:37 PM 82.4 °F 83.4 °F 62.6 °F 51% 29.97 in 10.0 mi SSW 6.9 mph - N/A   Clear
6:56 PM 82.4 °F 83.9 °F 64.4 °F 54% 29.96 in 10.0 mi SSW 5.8 mph - N/A   Clear
7:15 PM 82.4 °F 83.9 °F 64.4 °F 54% 29.96 in 10.0 mi SSW 5.8 mph - N/A   Clear
7:16 PM 82.4 °F 83.9 °F 64.4 °F 54% 29.96 in 10.0 mi South 4.6 mph - N/A   Clear
7:35 PM 82.4 °F 83.9 °F 64.4 °F 54% 29.96 in 10.0 mi South 5.8 mph - N/A   Clear
7:57 PM 80.6 °F 82.3 °F 64.4 °F 58% 29.96 in 10.0 mi South 4.6 mph - N/A   Clear
8:16 PM 78.8 °F - 64.4 °F 61% 29.95 in 10.0 mi South 5.8 mph - N/A   Clear
8:35 PM 78.8 °F - 66.2 °F 65% 29.94 in 10.0 mi South 4.6 mph - N/A   Clear
8:36 PM 78.8 °F - 66.2 °F 65% 29.94 in 10.0 mi South 4.6 mph - N/A   Clear
8:55 PM 77.0 °F - 66.2 °F 69% 29.94 in 10.0 mi South 5.8 mph - N/A   Clear
8:56 PM 77.0 °F - 66.2 °F 69% 29.94 in 10.0 mi South 4.6 mph - N/A   Clear
9:19 PM 73.4 °F - 66.2 °F 78% 29.94 in 10.0 mi South 5.8 mph - N/A   Clear
9:36 PM 73.4 °F - 66.2 °F 78% 29.93 in 10.0 mi South 5.8 mph - N/A   Clear
9:56 PM 73.4 °F - 66.2 °F 78% 29.93 in 10.0 mi South 5.8 mph - N/A   Clear
10:15 PM 73.4 °F - 66.2 °F 78% 29.93 in 10.0 mi South 6.9 mph - N/A   Clear
10:16 PM 73.4 °F - 66.2 °F 78% 29.93 in 10.0 mi South 6.9 mph - N/A   Clear
10:35 PM 73.4 °F - 66.2 °F 78% 29.92 in 10.0 mi South 5.8 mph - N/A   Clear
10:39 PM 73.4 °F - 66.2 °F 78% 29.92 in 10.0 mi South 6.9 mph - N/A   Clear
10:58 PM 73.4 °F - 64.4 °F 73% 29.92 in 10.0 mi South 8.1 mph - N/A   Clear
11:15 PM 73.4 °F - 64.4 °F 73% 29.92 in 10.0 mi South 9.2 mph - N/A   Clear
11:35 PM 73.4 °F - 64.4 °F 73% 29.91 in 10.0 mi South 8.1 mph - N/A   Clear
11:36 PM 73.4 °F - 64.4 °F 73% 29.91 in 10.0 mi South 8.1 mph - N/A   Clear
11:55 PM 73.4 °F - 64.4 °F 73% 29.91 in 10.0 mi South 8.1 mph - N/A   Clear